Regional Weather Roundup
Issued by NWS

Home | Current Version | Previous Version | Graphics & Text | Print | Product List | Glossary On
Versions: 1 2 3 4 5 6 7 8 9 10 11 12 13 14 15 16 17 18 19 20 21 22 23 24 25 26 27 28 29 30 31 32 33 34 35 36 37 38 39 40 41 42 43 44 45 46 47 48 49 50
000
ASUS43 KOAX 231302
RWRNE

WEATHER ROUNDUP FOR NEBRASKA
NATIONAL WEATHER SERVICE OMAHA NE
700 AM CST MON JAN 23 2017

NOTES: SATELLITE DATA IS BEING USED TO AUGMENT CLOUD COVER ABOVE
       12000 FEET.
       "FAIR" INDICATES FEW OR NO CLOUDS BELOW 12,000 FEET WITH NO
       SIGNIFICANT WEATHER AND/OR OBSTRUCTIONS TO VISIBILITY.

  * THESE STATIONS DO NOT REPORT WEATHER SUCH AS RAIN...SNOW OR FOG.

NEZ001>004-019>022-054>056-231400-
NEBRASKA PANHANDLE

CITY           SKY/WX    TMP DP  RH WIND       PRES   REMARKS
SCOTTSBLUFF    CLOUDY    28  21  75 CALM      29.66F
ALLIANCE       CLOUDY    29  25  85 SE7       29.67F WCI  22
CHADRON        CLOUDY    31  22  69 SE5       29.66F WCI  26
SIDNEY         CLOUDY    29  20  69 CALM      29.67F
$$

NEZ057>060-069>072-079>082-231400-
SOUTHWEST NEBRASKA

CITY           SKY/WX    TMP DP  RH WIND       PRES   REMARKS
NORTH PLATTE   CLOUDY    26  23  88 NE5       29.76F WCI  20
IMPERIAL       CLOUDY    27  22  81 SE8       29.72F WCI  19
LEXINGTON      CLOUDY    29  26  91 SE3       29.82R
MCCOOK         PTCLDY    23  21  92 NE6       29.78F WCI  16
OGALLALA       CLOUDY    29  26  88 NE3       29.72F
$$

NEZ005>010-023>029-035>040-094-231400-
NORTH CENTRAL NEBRASKA

CITY           SKY/WX    TMP DP  RH WIND       PRES   REMARKS
VALENTINE      CLOUDY    19  16  88 NE7       29.76F WCI  10
AINSWORTH      PTCLDY    22  22  98 E6        29.77F WCI  15
BROKEN BOW     CLOUDY    29  26  89 CALM      29.80F
O`NEILL        FOG       27  26  99 S3        29.85R VSB 1/2
ORD            PTCLDY    24  21  88 SE3       29.83F
THEDFORD       CLOUDY    31  27  86 CALM      29.77S
$$

NEZ041-046>049-061>064-073>077-083>087-231400-
SOUTH CENTRAL NEBRASKA

CITY           SKY/WX    TMP DP  RH WIND       PRES   REMARKS
GRAND ISLAND   CLOUDY    25  25 100 E5        29.87R WCI  19
AURORA         FOG       26  26 100 E6        29.87R VSB 1/4 WCI  19
HASTINGS       CLOUDY    29  26  89 E5        29.87R WCI  24
HEBRON         PTCLDY    25  25 100 CALM      29.88S
HOLDREGE       CLOUDY    30  27  88 SE6       29.82F WCI  24
KEARNEY *      CLOUDY    30  25  80 CALM      29.84S
YORK           FOG       28  28 100 E7        29.88S VSB 1   WCI  21
$$

NEZ011>018-030>034-042>045-231400-
NORTHEAST NEBRASKA

CITY           SKY/WX    TMP DP  RH WIND       PRES   REMARKS
NORFOLK        CLOUDY    28  24  85 SW3       29.88R
ALBION         CLOUDY    27  24  90 CALM      29.86F FOG
BLAIR          CLOUDY    32  28  86 NW5       29.86F WCI  27
FREMONT        CLOUDY    32  29  91 CALM      29.89S
TEKAMAH        CLOUDY    32  27  81 N5        29.88S WCI  27
WAYNE          CLOUDY    31  28  88 CALM      29.87R
$$

NEZ050>053-065>068-078-088>093-231400-
SOUTHEAST NEBRASKA

CITY           SKY/WX    TMP DP  RH WIND       PRES   REMARKS
LINCOLN        CLOUDY    31  28  89 CALM      29.91S
OMAHA EPPLEY   CLOUDY    32  26  78 NW7       29.89S WCI  26
BEATRICE       FOG       28  28 100 E3        29.89F VSB 1
FALLS CITY     CLOUDY    30  28  92 NW7       29.90F WCI  23
NEBRASKA CITY  CLOUDY    31  28  90 NW5       29.89F WCI  26
PLATTSMOUTH    CLOUDY    31  26  81 NW6       29.89S WCI  25
$$

NEZ044-045-051>053-067-231400-
OMAHA AREA

CITY           SKY/WX    TMP DP  RH WIND       PRES   REMARKS
OMAHA EPPLEY   CLOUDY    32  26  78 NW7       29.89S WCI  26
BLAIR          CLOUDY    32  28  86 NW5       29.86F WCI  27
FREMONT        CLOUDY    32  29  91 CALM      29.89S
MILLARD        CLOUDY    34  29  82 CALM      29.89S
OFFUTT AFB     CLOUDY    32  31  99 NW3       29.89S
PLATTSMOUTH    CLOUDY    31  26  81 NW6       29.89S WCI  25
WAHOO          CLOUDY    32  28  86 CALM      29.89S
$$



USA.gov is the U.S. government's official web portal to all federal, state and local government web resources and services.